Location: East Horndon
(51.5667°N, 0.3500°E)
Time: 23:40:00
(UTC+00:00)

SKYMED 2 - Pass Details

Date: 08 November 2025
Orbit: 621 x 623 km, 97.9° (Epoch: 04 December)

Event Time Altitude Azimuth Distance (km) Brightness Sun altitude
Rises 04:53:20 0° 161° (SSE) 2,895 7.3 -20.5°
Reaches altitude 10° 04:55:31 10° 161° (SSE) 1,993 6.4 -20.2°
Maximum altitude 04:59:51 83° 75° (ENE) 637 3.6 -19.5°
Drops below altitude 10° 05:04:14 10° 347° (NNW) 2,008 6.0 -18.8°
Sets 05:06:26 0° 347° (NNW) 2,919 6.9 -18.5°
